Regional Weather Roundup
Issued by NWS

Home | Current Version | Previous Version | Text Only | Print | Product List | Glossary Off
Versions: 1 2 3 4 5 6 7 8 9 10 11 12 13 14 15 16 17 18 19 20 21 22 23 24 25 26 27 28 29 30 31 32 33 34 35 36 37 38 39 40 41 42 43 44 45 46 47 48 49 50

000
ASUS43 KLMK 221402
RWRKY
KENTUCKY REGIONAL WEATHER ROUNDUP
NATIONAL WEATHER SERVICE LOUISVILLE KY
900 AM EST WED FEB 22 2017

NOTE "FAIR" INDICATES FEW OR NO CLOUDS BELOW 12,000 FEET
WITH NO SIGNIFICANT WEATHER AND/OR OBSTRUCTIONS TO VISIBILITY.

KYZ001>023-026-027-061>063-070>075-221500-
WESTERN AND SOUTH CENTRAL KENTUCKY

CITY           SKY/WX    TMP DP  RH WIND       PRES   REMARKS
PADUCAH        CLOUDY    59  56  89 CALM      29.90S FOG
HENDERSON      FAIR      55  52  88 CALM      29.91S
OWENSBORO      PTSUNNY   57  56  96 S6        29.92S FOG
HOPKINSVILLE   FAIR      57  57 100 E3        29.91R
BOWLING GREEN  PTSUNNY   58  55  90 CALM      29.93S
GLASGOW        NOT AVBL
$$

KYZ024-025-028>034-038-045-046-053-221500-
NORTH CENTRAL KENTUCKY

CITY           SKY/WX    TMP DP  RH WIND       PRES   REMARKS
LOUISVILLE/SDF CLOUDY    59  54  83 SE6       29.93S
LOUISVILLE/LOU CLOUDY    59  54  83 SE3       29.94R
FORT KNOX      NOT AVBL
$$

KYZ035>037-039>044-047>052-055>060-089>105-221500-
NORTHEAST KENTUCKY

CITY           SKY/WX    TMP DP  RH WIND       PRES   REMARKS
LEXINGTON      CLOUDY    56  53  90 S3        29.95S FOG
COVINGTON      LGT RAIN  56  55  97 S7        29.93S FOG
FRANKFORT      CLOUDY    57  54  89 S3        29.94S FOG
$$

KYZ054-064>069-076>088-106>120-221500-
SOUTHEAST KENTUCKY

CITY           SKY/WX    TMP DP  RH WIND       PRES   REMARKS
JACKSON        CLOUDY    54  51  90 CALM      29.97S
LONDON         CLOUDY    54  52  93 N3        29.97S
SOMERSET       CLOUDY    54  54 100 CALM      29.97F
MIDDLESBORO    LGT RAIN  54  52  95 SW5       29.99F
MONTICELLO     CLOUDY    55  54  96 W6        29.98R
$$





USA.gov is the U.S. government's official web portal to all federal, state and local government web resources and services.